When you browse on this site, cookies collect data to enhance your experience and personalize the content and advertising you see.
Visit our Privacy Policy to learn more. By continuing to use the site, you agree to this use of cookies and data.
  • In Spain
  • List of Countries
  • For 7 days
  • Water Temperature
  • Weather Map
  • Weather Widgets
  • user-avatar
    Login

    Hourly Weather Purranque

    Today, 26 January, Sunday

    Time Temperature Precipitation Wind Pressure Humidity
    00:00 +15°C° 0 mm 1 mps 754 mmHg 98%
    01:00 +13°C° 0 mm 0 mps 754 mmHg 99%
    02:00 +13°C° 0 mm 0 mps 754 mmHg 98%
    03:00 +14°C° 0 mm 1 mps 754 mmHg 98%
    04:00 +13°C° 0 mm 1 mps 753 mmHg 98%
    05:00 +14°C° 0 mm 1 mps 754 mmHg 95%
    06:00 +15°C° 0 mm 1 mps 754 mmHg 93%
    07:00 +15°C° 0 mm 1 mps 755 mmHg 87%
    08:00 +18°C° 0 mm 1 mps 755 mmHg 78%
    09:00 +19°C° 0 mm 1 mps 755 mmHg 69%
    10:00 +21°C° 0 mm 1 mps 755 mmHg 60%
    11:00 +22°C° 0 mm 1 mps 755 mmHg 53%
    12:00 +24°C° 0 mm 1 mps 755 mmHg 45%
    13:00 +25°C° 0 mm 2 mps 755 mmHg 38%
    14:00 +25°C° 0 mm 2 mps 755 mmHg 37%
    15:00 +25°C° 0 mm 2 mps 754 mmHg 35%
    16:00 +25°C° 0 mm 3 mps 754 mmHg 34%
    17:00 +23°C° 0 mm 2 mps 754 mmHg 42%
    18:00 +19°C° 0 mm 2 mps 754 mmHg 50%
    19:00 +17°C° 0 mm 2 mps 754 mmHg 57%
    20:00 +15°C° 0 mm 2 mps 755 mmHg 64%
    21:00 +13°C° 0 mm 1 mps 755 mmHg 70%
    22:00 +11°C° 0 mm 1 mps 755 mmHg 77%
    23:00 +10°C° 0 mm 1 mps 755 mmHg 79%

    Tomorrow, 27 January, Monday

    Time Temperature Precipitation Wind Pressure Humidity
    00:00 +9°C° 0 mm 1 mps 754 mmHg 80%
    01:00 +8°C° 0 mm 0 mps 754 mmHg 82%
    02:00 +7°C° 0 mm 0 mps 754 mmHg 84%
    03:00 +7°C° 0 mm 0 mps 754 mmHg 87%
    04:00 +7°C° 0 mm 0 mps 754 mmHg 89%
    05:00 +9°C° 0 mm 0 mps 753 mmHg 82%
    06:00 +11°C° 0 mm 1 mps 753 mmHg 75%
    07:00 +13°C° 0 mm 1 mps 753 mmHg 69%
    08:00 +16°C° 0 mm 1 mps 753 mmHg 58%
    09:00 +20°C° 0 mm 1 mps 753 mmHg 46%
    10:00 +23°C° 0 mm 1 mps 752 mmHg 35%
    11:00 +25°C° 0 mm 1 mps 752 mmHg 32%
    12:00 +26°C° 0 mm 1 mps 752 mmHg 28%
    13:00 +28°C° 0 mm 1 mps 752 mmHg 25%
    14:00 +27°C° 0 mm 2 mps 752 mmHg 30%
    15:00 +27°C° 0 mm 2 mps 751 mmHg 35%
    16:00 +27°C° 0 mm 2 mps 751 mmHg 40%
    17:00 +25°C° 0 mm 2 mps 751 mmHg 50%
    18:00 +23°C° 0 mm 1 mps 751 mmHg 60%
    19:00 +21°C° 0 mm 1 mps 751 mmHg 71%
    20:00 +20°C° 0 mm 1 mps 750 mmHg 75%
    21:00 +19°C° 0 mm 1 mps 750 mmHg 79%
    22:00 +18°C° 0 mm 1 mps 750 mmHg 83%
    23:00 +16°C° 0.1 mm 0 mps 750 mmHg 87%

    Day after tomorrow, 28 January, Tuesday

    Time Temperature Precipitation Wind Pressure Humidity
    00:00 +16°C° 0.1 mm 0 mps 749 mmHg 91%
    01:00 +15°C° 0.1 mm 0 mps 749 mmHg 95%
    02:00 +16°C° 0.1 mm 1 mps 749 mmHg 95%
    03:00 +16°C° 0.1 mm 1 mps 749 mmHg 96%
    04:00 +16°C° 0.1 mm 1 mps 749 mmHg 97%
    05:00 +16°C° 0.1 mm 2 mps 749 mmHg 93%
    06:00 +15°C° 0.1 mm 2 mps 749 mmHg 89%
    07:00 +13°C° 0.1 mm 3 mps 749 mmHg 86%
    08:00 +14°C° 0 mm 3 mps 749 mmHg 76%
    09:00 +16°C° 0 mm 3 mps 750 mmHg 67%
    10:00 +17°C° 0 mm 3 mps 750 mmHg 57%
    11:00 +17°C° 0 mm 3 mps 750 mmHg 56%
    12:00 +17°C° 0 mm 3 mps 751 mmHg 54%
    13:00 +18°C° 0 mm 3 mps 751 mmHg 53%
    14:00 +17°C° 0 mm 3 mps 751 mmHg 51%
    15:00 +17°C° 0 mm 3 mps 751 mmHg 50%
    16:00 +17°C° 0 mm 3 mps 751 mmHg 48%
    17:00 +16°C° 0 mm 3 mps 752 mmHg 54%
    18:00 +15°C° 0 mm 2 mps 752 mmHg 60%
    19:00 +13°C° 0 mm 2 mps 753 mmHg 66%
    20:00 +12°C° 0 mm 2 mps 753 mmHg 72%
    21:00 +10°C° 0 mm 2 mps 754 mmHg 78%
    22:00 +9°C° 0 mm 2 mps 754 mmHg 85%
    23:00 +8°C° 0 mm 2 mps 754 mmHg 87%

    29 January, Wednesday

    Time Temperature Precipitation Wind Pressure Humidity
    00:00 +8°C° 0 mm 2 mps 754 mmHg 89%
    01:00 +8°C° 0 mm 2 mps 755 mmHg 91%
    02:00 +8°C° 0 mm 2 mps 755 mmHg 90%
    03:00 +7°C° 0 mm 2 mps 755 mmHg 89%
    04:00 +7°C° 0 mm 2 mps 755 mmHg 88%
    05:00 +8°C° 0 mm 2 mps 755 mmHg 82%
    06:00 +9°C° 0 mm 2 mps 755 mmHg 75%
    07:00 +10°C° 0 mm 2 mps 755 mmHg 69%
    08:00 +13°C° 0 mm 2 mps 755 mmHg 61%
    09:00 +15°C° 0 mm 2 mps 755 mmHg 53%
    10:00 +16°C° 0 mm 2 mps 755 mmHg 46%
    11:00 +17°C° 0 mm 2 mps 755 mmHg 43%
    12:00 +19°C° 0 mm 3 mps 755 mmHg 40%
    13:00 +20°C° 0 mm 3 mps 755 mmHg 37%
    14:00 +19°C° 0 mm 3 mps 754 mmHg 39%
    15:00 +19°C° 0 mm 3 mps 754 mmHg 41%
    16:00 +19°C° 0 mm 3 mps 754 mmHg 43%
    17:00 +17°C° 0 mm 3 mps 754 mmHg 50%
    18:00 +15°C° 0 mm 2 mps 754 mmHg 57%
    19:00 +13°C° 0 mm 2 mps 754 mmHg 64%
    20:00 +12°C° 0 mm 2 mps 755 mmHg 72%
    21:00 +9°C° 0 mm 2 mps 755 mmHg 80%
    22:00 +9°C° 0 mm 1 mps 755 mmHg 88%
    23:00 +8°C° 0 mm 1 mps 755 mmHg 91%

    30 January, Thursday

    Time Temperature Precipitation Wind Pressure Humidity
    00:00 +8°C° 0 mm 1 mps 754 mmHg 94%
    01:00 +7°C° 0 mm 1 mps 754 mmHg 97%
    02:00 +7°C° 0 mm 1 mps 754 mmHg 97%
    03:00 +7°C° 0 mm 1 mps 754 mmHg 97%
    04:00 +7°C° 0 mm 1 mps 753 mmHg 98%
    05:00 +8°C° 0 mm 1 mps 753 mmHg 91%
    06:00 +10°C° 0 mm 1 mps 753 mmHg 84%
    07:00 +12°C° 0 mm 1 mps 753 mmHg 77%
    08:00 +14°C° 0 mm 1 mps 753 mmHg 65%
    09:00 +18°C° 0 mm 1 mps 753 mmHg 53%
    10:00 +21°C° 0 mm 1 mps 753 mmHg 41%
    11:00 +22°C° 0 mm 1 mps 753 mmHg 41%
    12:00 +24°C° 0 mm 2 mps 753 mmHg 42%
    13:00 +25°C° 0 mm 2 mps 752 mmHg 42%
    14:00 +25°C° 0 mm 2 mps 752 mmHg 45%
    15:00 +25°C° 0 mm 2 mps 752 mmHg 48%
    16:00 +24°C° 0 mm 2 mps 752 mmHg 51%
    17:00 +23°C° 0 mm 2 mps 752 mmHg 60%
    18:00 +21°C° 0 mm 1 mps 752 mmHg 68%
    19:00 +19°C° 0 mm 1 mps 752 mmHg 77%
    20:00 +18°C° 0 mm 1 mps 752 mmHg 81%
    21:00 +15°C° 0 mm 0 mps 752 mmHg 84%
    22:00 +15°C° 0 mm 0 mps 752 mmHg 88%
    23:00 +14°C° 0 mm 0 mps 752 mmHg 90%

    31 January, Friday

    Time Temperature Precipitation Wind Pressure Humidity
    00:00 +14°C° 0 mm 0 mps 752 mmHg 92%
    01:00 +14°C° 0 mm 0 mps 752 mmHg 94%
    02:00 +14°C° 0 mm 0 mps 752 mmHg 94%
    03:00 +14°C° 0 mm 0 mps 752 mmHg 95%
    04:00 +14°C° 0 mm 0 mps 752 mmHg 95%
    05:00 +14°C° 0 mm 0 mps 752 mmHg 92%
    06:00 +15°C° 0 mm 0 mps 752 mmHg 89%
    07:00 +16°C° 0 mm 0 mps 752 mmHg 86%
    08:00 +18°C° 0 mm 0 mps 752 mmHg 76%
    09:00 +20°C° 0 mm 0 mps 752 mmHg 66%
    10:00 +23°C° 0 mm 0 mps 752 mmHg 56%
    11:00 +24°C° 0 mm 0 mps 752 mmHg 49%
    12:00 +27°C° 0 mm 1 mps 751 mmHg 42%
    13:00 +29°C° 0 mm 1 mps 751 mmHg 35%
    14:00 +28°C° 0 mm 1 mps 751 mmHg 36%
    15:00 +28°C° 0 mm 1 mps 751 mmHg 36%
    16:00 +27°C° 0 mm 2 mps 750 mmHg 37%
    17:00 +25°C° 0 mm 2 mps 750 mmHg 47%
    18:00 +23°C° 0 mm 1 mps 750 mmHg 57%
    19:00 +21°C° 0 mm 1 mps 750 mmHg 67%
    20:00 +19°C° 0 mm 1 mps 750 mmHg 76%
    21:00 +16°C° 0 mm 1 mps 750 mmHg 85%
    22:00 +15°C° 0 mm 1 mps 750 mmHg 93%
    23:00 +13°C° 0 mm 0 mps 749 mmHg 95%
    Show more